Location: Zagreb
(45.8000°N, 16.0000°E)
Time: 00:50:54
(UTC+01:00)

Transit 2A Rocket - Pass Details

Date: 11 October 2020
Orbit: 586 x 916 km, 66.7° (Epoch: 28 October)

Event Time Altitude Azimuth Distance (km) Brightness Sun altitude
Rises 21:35:00 0° 331° (NNW) 3,433 9.1 -34.4°
Reaches altitude 10° 21:38:09 10° 346° (NNW) 2,439 8.0 -34.9°
Enters shadow 21:40:02 17° 3° (N) 1,966 7.3 -35.2°
Maximum altitude 21:42:25 22° 36° (NE) 1,681 - -35.5°
Drops below altitude 10° 21:46:24 10° 86° (E) 2,261 - -36.1°
Sets 21:49:11 0° 102° (ESE) 3,117 - -36.5°
